Prescott, AZ

4:11 AM MST on December 16, 2019 (GMT -0700)
Love

Weather History for KPRC - October, 2019

Change the Weather History Date:

Friday, October 18, 2019

  Actual Average Record
Temperature  
Mean Temperature 58 °F 56 °F  
Max Temperature 72 °F 71 °F 86 °F (2003)
Min Temperature 45 °F 41 °F 29 °F (1984)
Degree Days  
Heating Degree Days 6    
Month to date heating degree days 110  
Since 1 July heating degree days 137  
Cooling Degree Days 0    
Month to date cooling degree days 0  
Year to date cooling degree days 1130  
Growing Degree Days 8 (Base 50)    
Moisture  
Dew Point 26 °F    
Average Humidity 35    
Maximum Humidity 71    
Minimum Humidity 7    
Precipitation  
Precipitation 0.00 in 0.03 in 1.32 in (1972)
Month to date precipitation 0.00 0.57  
Year to date precipitation 10.29 11.74  
Sea Level Pressure  
Sea Level Pressure 29.76 in    
Wind  
Wind Speed 6 mph ()    
Max Wind Speed 17 mph    
Max Gust Speed 25 mph    
Visibility 10.0 miles    
Events      
T = Trace of Precipitation, MM = Missing Value Source: Averaged Metar Reports

Daily Weather History Graph

Daily Weather History Graph

Search for Another Location

Airport or City:

Astronomy

Oct. 18, 2019 Rise Set
Actual Time 6:37 AM MST 5:51 PM MST
Civil Twilight 6:12 AM MST 6:16 PM MST
Nautical Twilight 5:42 AM MST 6:46 PM MST
Astronomical Twilight 5:13 AM MST 7:15 PM MST
Moon 9:20 PM MST (10/18) 11:05 AM MST (10/18)
Length of Visible Light 12h 04m
Length of Day
11h 13m
Waning Gibbous, 78% of the Moon is Illuminated
Oct 18
Waning Gibbous
Oct 21
Last Quarter
Oct 27
New
Nov 4
First Quarter
Nov 12
Full

Hourly Weather History & Observations

Time (MST) Temp. Windchill Dew Point Humidity Pressure Visibility Wind Dir Wind Speed Gust Speed Precip Events Conditions
12:53 AM 57.9 °F - 37.9 °F 47% 29.59 in 10.0 mi SSW 15.0 mph 23.0 mph N/A   Clear
1:53 AM 57.0 °F - 39.0 °F 51% 29.60 in 10.0 mi SSW 15.0 mph 23.0 mph N/A   Clear
2:53 AM 55.0 °F - 39.0 °F 55% 29.62 in 10.0 mi Calm Calm - N/A   Clear
3:53 AM 52.0 °F - 36.0 °F 54% 29.66 in 10.0 mi Calm Calm - N/A   Clear
4:53 AM 46.9 °F - 36.0 °F 66% 29.68 in 10.0 mi South 3.5 mph - N/A   Clear
5:53 AM 45.0 °F 43.5 °F 36.0 °F 71% 29.71 in 10.0 mi SW 3.5 mph - N/A   Clear
6:53 AM 46.0 °F 42.5 °F 35.1 °F 66% 29.74 in 10.0 mi SW 6.9 mph - N/A   Clear
7:53 AM 51.1 °F - 35.1 °F 54% 29.76 in 10.0 mi Calm Calm - N/A   Clear
8:53 AM 55.9 °F - 35.1 °F 45% 29.77 in 10.0 mi Calm Calm - N/A   Partly Cloudy
9:53 AM 62.1 °F - 30.0 °F 30% 29.77 in 10.0 mi NNW 3.5 mph - N/A   Partly Cloudy
10:53 AM 64.9 °F - 30.0 °F 27% 29.78 in 10.0 mi North 8.1 mph - N/A   Partly Cloudy
11:53 AM 64.9 °F - 28.0 °F 25% 29.79 in 10.0 mi Variable 4.6 mph - N/A   Partly Cloudy
12:53 PM 69.1 °F - 24.1 °F 18% 29.75 in 10.0 mi NW 15.0 mph 19.6 mph N/A   Partly Cloudy
1:53 PM 69.1 °F - 21.0 °F 16% 29.75 in 10.0 mi WNW 3.5 mph - N/A   Partly Cloudy
2:53 PM 70.0 °F - 16.0 °F 13% 29.75 in 10.0 mi WSW 5.8 mph - N/A   Clear
3:53 PM 71.1 °F - 3.9 °F 7% 29.76 in 10.0 mi Variable 5.8 mph - N/A   Clear
4:53 PM 70.0 °F - 5.0 °F 8% 29.77 in 10.0 mi North 6.9 mph - N/A   Clear
5:53 PM 64.0 °F - 16.0 °F 16% 29.80 in 10.0 mi West 9.2 mph - N/A   Clear
6:53 PM 60.1 °F - 17.1 °F 19% 29.83 in 10.0 mi SSW 4.6 mph - N/A   Clear
7:53 PM 57.9 °F - 21.9 °F 25% 29.85 in 10.0 mi SSW 10.4 mph - N/A   Clear
8:53 PM 55.9 °F - 21.9 °F 27% 29.86 in 10.0 mi SSW 9.2 mph - N/A   Clear
9:53 PM 52.0 °F - 21.0 °F 30% 29.87 in 10.0 mi SSW 4.6 mph - N/A   Clear
10:53 PM 48.9 °F - 21.0 °F 33% 29.88 in 10.0 mi SW 3.5 mph - N/A   Clear
11:53 PM 46.9 °F - 21.0 °F 36% 29.88 in 9.0 mi SSW 8.1 mph - N/A   Clear